www.pogodaiklimat.ru

АРХИВ ПОГОДЫ в Ростове-на-Дону

Время (UTC), дата Ветер
(напр.,м/с)
 
Видим.   Явления Облачность Т
(С)
Тd
(С)
f
(%)
Тe
(С)
Тes
(С)
Комфортность P
(гПа)
Po
(гПа)
Тmin
(С)
Tmax
(С)
R
(мм)
S
(см)
15 20.06 СВ 4 10 км 9/3
[Cb calv Ac trans Ci fib]
+32.7 +17.6 41 +37 +37 очень
душно
1019.9 1011.5 +33.4
18 20.06 СВ 3 8000 м 4/1
[Cb calv Ci fib]
+29.1 +18.3 52 +34 +34 очень
душно
1020.8 1012.3
21 20.06 С 3 8000 м 4/0
[Ci fib]
+27.0 +17.8 57 +31 +31 душно 1021.7 1013.2
00 21.06 С 5 8000 м 3/0
[Ac trans]
+24.8 +18.2 67 +29 +29 душно 1021.5 1012.9
03 21.06 СВ 5 10 км 3/0
[Ac trans]
+25.2 +18.7 67 +30 +30 душно 1021.4 1012.8 +23.7
06 21.06 СВ 5 10 км 1/0
[Ac trans]
+29.4 +20.5 59 +36 +42 очень
душно
1021.9 1013.4
09 21.06 В 5 10 км 3/3
[Cu med, cong]
+32.2 +19.0 46 +38 +44 очень
душно
1021.7 1013.3
12 21.06 В 4 10 км 4/3
[Cu med, cong Ci fib]
+33.5 +16.6 36 +36 +42 очень
душно
1020.5 1012.1
15 21.06 СВ 5 10 км 4/1
[Cu hum Ci]
+32.7 +18.0 42 +37 +38 очень
душно
1019.7 1011.3 +33.7
18 21.06 СВ 4 8000 м 4/1
[Cb calv Ac trans]
+28.0 +19.3 59 +34 +34 очень
душно
1021.1 1012.6
21 21.06 В 3 8000 м 3/0
[Ac trans]
+24.4 +18.7 71 +29 +29 душно 1020.8 1012.2
00 22.06 СВ 3 8000 м ясно +24.7 +17.6 65 +29 +29 душно 1021.0 1012.4
03 22.06 СВ 4 10 км 3/0
[Ci fib]
+24.8 +18.4 68 +29 +30 душно 1021.5 1012.9 +22.4
06 22.06 СВ 4 10 км ясно +29.3 +19.1 54 +35 +42 очень
душно
1021.3 1012.8
09 22.06 В 5 10 км ясно +32.3 +19.5 47 +38 +48 очень
душно
1020.3 1011.9
12 22.06 В 5 10 км 3/3
[Cu med, cong]
+33.4 +16.5 36 +36 +41 очень
душно
1019.4 1011.0
15 22.06 СВ 6 10 км 4/1
[Cb calv Ci fib]
+32.7 +17.2 40 +36 +37 очень
душно
1018.5 1010.1 +34.1
18 22.06 СВ 6 8000 м гроза без осадков 4/1
[Cb cap Ac trans Ci]
+29.9 +18.9 52 +35 +35 очень
душно
1019.4 1011.0
21 22.06 СВ 5
{12}
8000 м {гроза} 3/0
[Ci fib]
+25.6 +18.1 63 +30 +30 душно 1019.4 1010.8
00 23.06 С 5
{12}
8000 м {гроза} 5/0
[Ac trans Ci fib]
+25.1 +18.6 67 +30 +30 душно 1019.1 1010.5
03 23.06 СВ 5 10 км 3/0
[Ac trans]
+25.7 +19.5 69 +31 +32 очень
душно
1019.4 1010.8 +24.1
06 23.06 СВ 6 10 км 3/0
[Ac trans]
+29.1 +20.7 61 +36 +40 очень
душно
1019.3 1010.8
09 23.06 СВ 8-12
{11}
10 км 3/3
[Cu med, cong]
+32.2 +19.6 47 +38 +40 очень
душно
1019.3 1010.9
12 23.06 СВ 8-11
{12}
10 км 3/3
[Cu med, cong]
+33.1 +13.1 30 +34 +36 очень
жарко
1017.6 1009.2
15 23.06 СВ 5
{11}
10 км 5/0
[Ac trans Ci fib]
+31.5 +16.1 40 +34 +36 душно 1017.7 1009.3 +33.6
18 23.06 ЮВ 2 8000 м 9/3
[Cb calv Ac trans Ci fib]
+25.7 +17.4 60 +30 +30 душно 1018.2 1009.6
21 23.06 С 5
{10}
8000 м 8/3
[Cb calv Ac trans Ci fib]
+25.4 +14.0 49 +28 +28 жарко 1018.3 1009.7
00 24.06 СВ 4
{10}
8000 м 4/0
[Ac trans Ci fib]
+22.7 +13.6 56 +26 +26 жарко 1018.3 1009.6
03 24.06 СВ 5 10 км 6/0
[Ac trans Ci fib]
+21.7 +14.3 63 +25 +25 комфорт 1018.8 1010.1 +21.5
06 24.06 В 6 10 км 1/0
[Ac trans]
+26.6 +14.6 48 +29 +33 жарко 1018.7 1010.2
09 24.06 СВ 5
{10}
10 км 4/4
[Cu med, cong]
+28.2 +14.0 42 +30 +36 жарко 1018.4 1009.9
12 24.06 В 5
{10}
10 км 5/4
[Cu med, cong Ci fib]
+29.8 +13.2 36 +31 +35 жарко 1017.0 1008.6
15 24.06 СВ 6 10 км 3/3
[Cu hum]
+29.3 +14.2 40 +31 +32 жарко 1016.4 1008.0 +30.2
18 24.06 С 4 8000 м 3/0
[Ac trans]
+26.9 +13.4 43 +29 +29 жарко 1017.0 1008.5
21 24.06 СВ 4 8000 м 4/0
[Ac trans Ci fib]
+24.5 +13.5 50 +27 +27 жарко 1017.8 1009.2
00 25.06 СВ 5 8000 м 4/0
[Ac trans Ci fib]
+22.8 +12.9 54 +26 +26 жарко 1018.0 1009.3
03 25.06 СВ 4 10 км 3/0
[Ac trans]
+22.4 +14.0 59 +26 +26 жарко 1018.8 1010.1 +19.7
06 25.06 В 6 10 км 3/0
[Ac trans Ci fib]
+26.7 +15.0 49 +29 +33 жарко 1019.0 1010.5
09 25.06 В 5 10 км 4/4
[Cu hum]
+29.4 +13.2 37 +31 +37 жарко 1018.8 1010.3
12 25.06 СВ 5 10 км 4/4
[Cu hum]
+30.2 +12.5 34 +31 +35 жарко 1018.2 1009.8
15 25.06 СВ 4 10 км 3/0
[Ac trans]
+29.8 +11.1 31 +30 +32 жарко 1017.8 1009.3 +30.6
18 25.06 СВ 3 10 км ясно +26.3 +11.9 41 +28 +28 жарко 1018.1 1009.5
21 25.06 С 4 8000 м 3/0
[Ac trans]
+24.2 +12.3 47 +26 +26 жарко 1018.3 1009.7
00 26.06 СВ 3 8000 м ясно +19.8 +13.1 65 +22 +22 комфорт 1018.2 1009.5
03 26.06 СВ 3 10 км ясно +22.3 +13.8 59 +25 +26 комфорт 1018.6 1009.9 +19.1
06 26.06 В 5 10 км ясно +27.5 +14.9 46 +30 +36 жарко 1018.4 1009.9
09 26.06 В 6
{10}
10 км 3/3
[Cu med, cong]
+30.0 +13.1 35 +31 +36 жарко 1018.2 1009.8
12 26.06 В 5
{11}
10 км 3/3
[Cu med, cong]
+31.0 +12.8 33 +32 +37 жарко 1016.5 1008.1
15 26.06 В 5 10 км 1/0
[Ac trans]
+30.5 +13.7 36 +32 +33 жарко 1015.0 1006.6 +33.0
18 26.06 СВ 4 8000 м ясно +24.3 +13.8 52 +27 +27 жарко 1014.9 1006.3
21 26.06 СВ 4 8000 м 3/0
[Ci fib]
+21.8 +14.6 64 +25 +25 комфорт 1014.3 1005.7
00 27.06 СВ 4 8000 м ясно +22.1 +14.1 60 +25 +25 комфорт 1013.6 1005.0
03 27.06 СВ 3 10 км ясно +23.9 +15.5 59 +27 +28 жарко 1013.8 1005.2 +20.4
06 27.06 В 5 10 км ясно +28.0 +16.5 50 +32 +37 душно 1012.8 1004.4
09 27.06 В 4 10 км 1/1
[Cu hum]
+31.7 +14.2 35 +33 +45 жарко 1011.1 1002.8
12 27.06 В 6
{11}
10 км 1/1
[Cu hum]
+33.1 +14.2 32 +34 +39 очень
жарко
1009.4 1001.1

 

Местоположение метеостанции Ростов-на-Дону (Ростовская область, Россия): широта 47.27 долгота 39.82 высота над уровнем моря 75 м.

В архиве по умолчанию представлена погода в Ростове-на-Дону за последнюю неделю. Архивные данные за месяц целиком и за предыдущие месяцы, начиная с января 2011 года, Вы можете получить, выбрав интересующий диапазон дат из раскрывающегося списка и нажав кнопку "Ввод!".

Внимание! Время в таблицах - всемирное. Для получения местного времени необходимо прибавить поправку, которая в Rostov-na-Donu равна 3 ч.

Ветер - указаны скорость ветра в м/с - средняя за 10 мин, порывы в срок и между сроками (в фигурных скобках) и направление, откуда дует ветер: С - северный, СВ - северо-восточный, В - восточный, ЮВ - юго-восточный, Ю - южный, ЮЗ - юго-западный, З - западный, СЗ - северо-западный.
Видимость - горизонтальная дальность видимости в метрах или километрах. При видимости от 1 до 10 км при отсутствии осадков обычно наблюдается дымка, при ухудшении видимости до 1 км и менее - туман. В сухую погоду видимость может ухудшаться дымом, пылью или мглою.
Явления - указаны атмосферные явления, наблюдавшиеся в срок или в последний час перед сроком; фигурными скобками обозначены явления, наблюдавшиеся между сроками (за 1-3 часа до срока); квадратными скобками обозначены град или гололедные отложения с указанием их диаметра в мм.
Облачность - указаны через наклонную черту общая и нижняя облачность в баллах и высота нижней границы облаков в метрах; квадратными скобками обозначены формы облаков: Ci - перистые, Cs - перисто-слоистые, Cc - перисто-кучевые, Ac - высококучевые, As - высокослоистые, Sc - слоисто-кучевые, Ns - слоисто-дождевые, Cu - кучевые, Cb - кучево-дождевые. Подробнее классификацию облаков см. в Атласе облаков (PDF).
T - Температура воздуха - температура, измеренная на высоте 2 м над землей.
Td - Температура точки росы - температура, при понижении до которой содержащийся в воздухе водяной пар достигнет насыщения.
f - Относительная влажность воздуха - влажноcть воздуха, измеренная на высоте 2 м над землей.
Te - Эффективная температура - температура, которую ощущает одетый по сезону человек в тени. Характеристика душности погоды. При расчете учитывается влияние влажности воздуха и скорости ветра на теплоощущения человека.
Tes - Эффективная температура на солнце - температура, которую ощущает человек, с поправкой на солнечный нагрев. Характеристика знойности погоды. Зависит от высоты солнца над горизонтом, облачности и скорости ветра. Ночью, в пасмурную погоду, а также при ветре 12 м/с и более поправка равна нулю.
P - Атмосферное давление - приведенное к уровню моря атмосферное давление.
Po - Атмосферное давление - измеренное на уровне метеостанции атмосферное давление.
Tmin - Минимальная температура - минимум температуры воздуха на высоте 2 м над землей.
Tmax - Максимальная температура - максимум температуры воздуха на высоте 2 м над землей.
R - Количество осадков - Количество выпавших осадков, мм. При наведении курсора мыши на число - период времени, за который выпало указанное количество осадков.
S - Снежный покров - Высота снежного покрова, см. При наведении курсора мыши на число - состояние снежного покрова и степень покрытия местности в баллах.